Time,TemperatureF,DewpointF,PressureIn,WindDirection,WindDirectionDegrees,WindSpeedMPH,WindSpeedGustMPH,Humidity,HourlyPrecipIn,Conditions,Clouds,dailyrainin,SoftwareType,DateUTC
2013-08-14 04:15:00,49.5,40.1,29.97,North,-999,0.0,0.0,70,0.00,,,-99.99,FreeWX 2.04,2013-08-14 08:15:00,
2013-08-14 06:05:00,48.7,41.9,30.00,North,-999,0.0,0.0,77,0.00,,,-99.99,FreeWX 2.04,2013-08-14 10:05:00,
2013-08-14 06:10:00,48.7,42.3,30.00,North,-999,0.0,0.0,78,0.00,,,-99.99,FreeWX 2.04,2013-08-14 10:10:00,
2013-08-14 06:15:00,48.7,42.3,30.00,North,-999,0.0,0.0,78,0.00,,,-99.99,FreeWX 2.04,2013-08-14 10:15:00,
2013-08-14 06:20:00,48.7,42.3,30.00,North,-999,0.0,0.0,78,0.00,,,-99.99,FreeWX 2.04,2013-08-14 10:20:00,
2013-08-14 06:25:00,48.6,42.1,30.00,North,-999,0.0,0.0,78,0.00,,,-99.99,FreeWX 2.04,2013-08-14 10:25:00,
2013-08-14 06:30:00,48.6,42.3,30.00,North,-999,0.0,0.0,79,0.00,,,-99.99,FreeWX 2.04,2013-08-14 10:30:00,
2013-08-14 06:35:00,48.6,42.3,30.00,North,-999,0.0,0.0,79,0.00,,,-99.99,FreeWX 2.04,2013-08-14 10:35:00,
2013-08-14 06:40:00,48.6,42.3,30.00,North,-999,0.0,0.0,79,0.00,,,-99.99,FreeWX 2.04,2013-08-14 10:40:00,
2013-08-14 06:45:00,48.6,42.3,30.00,North,-999,0.0,0.0,79,0.00,,,-99.99,FreeWX 2.04,2013-08-14 10:45:00,
2013-08-14 06:50:00,48.6,42.6,30.00,North,-999,0.0,3.6,80,0.00,,,-99.99,FreeWX 2.04,2013-08-14 10:50:00,
2013-08-14 06:55:00,48.7,42.8,30.00,North,-999,0.0,0.0,80,0.00,,,-99.99,FreeWX 2.04,2013-08-14 10:55:00,
2013-08-14 07:00:00,48.7,42.8,30.00,North,-999,0.0,0.0,80,0.00,,,-99.99,FreeWX 2.04,2013-08-14 11:00:00,
2013-08-14 07:05:00,48.7,42.8,30.00,North,-999,0.0,0.0,80,0.00,,,-99.99,FreeWX 2.04,2013-08-14 11:05:00,
2013-08-14 07:10:00,48.9,43.3,30.03,North,-999,0.0,3.6,81,0.00,,,-99.99,FreeWX 2.04,2013-08-14 11:10:00,
2013-08-14 07:15:00,48.9,43.3,30.03,North,-999,0.0,0.0,81,0.00,,,-99.99,FreeWX 2.04,2013-08-14 11:15:00,
2013-08-14 07:20:00,48.9,43.3,30.03,North,-999,0.0,0.0,81,0.00,,,-99.99,FreeWX 2.04,2013-08-14 11:20:00,
2013-08-14 07:25:00,49.1,43.5,30.03,North,-999,0.0,0.0,81,0.00,,,-99.99,FreeWX 2.04,2013-08-14 11:25:00,
2013-08-14 07:30:00,49.3,43.7,30.03,North,-999,0.0,0.0,81,0.00,,,-99.99,FreeWX 2.04,2013-08-14 11:30:00,
2013-08-14 07:35:00,49.5,44.2,30.03,North,-999,0.0,0.0,82,0.00,,,-99.99,FreeWX 2.04,2013-08-14 11:35:00,
2013-08-14 07:40:00,49.6,44.4,30.03,North,-999,0.0,3.1,82,0.00,,,-99.99,FreeWX 2.04,2013-08-14 11:40:00,
2013-08-14 07:45:00,49.8,44.6,30.03,North,-999,0.0,4.0,82,0.00,,,-99.99,FreeWX 2.04,2013-08-14 11:45:00,
2013-08-14 07:50:00,50.2,45.1,30.03,North,-999,0.0,0.0,83,0.00,,,-99.99,FreeWX 2.04,2013-08-14 11:50:00,
2013-08-14 07:55:00,50.4,45.3,30.03,North,-999,0.0,0.0,83,0.00,,,-99.99,FreeWX 2.04,2013-08-14 11:55:00,
2013-08-14 08:00:00,50.7,45.7,30.03,North,-999,0.0,0.0,83,0.00,,,-99.99,FreeWX 2.04,2013-08-14 12:00:00,
2013-08-14 08:05:00,50.9,45.9,30.03,North,-999,0.0,0.0,83,0.00,,,-99.99,FreeWX 2.04,2013-08-14 12:05:00,
2013-08-14 08:10:00,51.3,46.2,30.03,North,-999,0.0,4.0,83,0.00,,,-99.99,FreeWX 2.04,2013-08-14 12:10:00,
2013-08-14 08:15:00,51.6,46.6,30.03,North,-999,0.0,4.0,83,0.00,,,-99.99,FreeWX 2.04,2013-08-14 12:15:00,
2013-08-14 08:20:00,52.0,46.9,30.03,North,-999,0.0,4.0,83,0.00,,,-99.99,FreeWX 2.04,2013-08-14 12:20:00,
2013-08-14 08:25:00,52.3,47.7,30.03,West,273,1.0,4.5,84,0.00,,,-99.99,FreeWX 2.04,2013-08-14 12:25:00,
2013-08-14 08:30:00,52.9,48.2,30.03,North,-999,0.0,3.6,84,0.00,,,-99.99,FreeWX 2.04,2013-08-14 12:30:00,
2013-08-14 08:35:00,53.2,48.6,30.03,North,-999,0.0,4.0,84,0.00,,,-99.99,FreeWX 2.04,2013-08-14 12:35:00,
2013-08-14 08:40:00,53.6,48.9,30.03,North,-999,0.0,3.6,84,0.00,,,-99.99,FreeWX 2.04,2013-08-14 12:40:00,
2013-08-14 08:45:00,54.1,49.5,30.03,North,-999,0.0,3.6,84,0.00,,,-99.99,FreeWX 2.04,2013-08-14 12:45:00,
2013-08-14 08:50:00,54.9,50.2,30.03,SW,225,1.0,4.5,84,0.00,,,-99.99,FreeWX 2.04,2013-08-14 12:50:00,
2013-08-14 08:55:00,55.6,50.9,30.03,North,-999,0.0,5.4,84,0.00,,,-99.99,FreeWX 2.04,2013-08-14 12:55:00,
2013-08-14 09:00:00,56.1,51.3,30.03,North,-999,0.0,3.6,84,0.00,,,-99.99,FreeWX 2.04,2013-08-14 13:00:00,
2013-08-14 09:05:00,56.7,51.8,30.03,West,275,1.0,4.5,84,0.00,,,-99.99,FreeWX 2.04,2013-08-14 13:05:00,
2013-08-14 09:10:00,57.6,52.7,30.03,North,-999,0.0,4.5,84,0.00,,,-99.99,FreeWX 2.04,2013-08-14 13:10:00,
2013-08-14 09:15:00,58.5,53.2,30.03,North,-999,0.0,0.0,83,0.00,,,-99.99,FreeWX 2.04,2013-08-14 13:15:00,
2013-08-14 09:20:00,60.1,54.9,30.03,North,-999,0.0,4.5,83,0.00,,,-99.99,FreeWX 2.04,2013-08-14 13:20:00,
2013-08-14 09:25:00,60.6,55.0,30.03,North,-999,0.0,4.5,82,0.00,,,-99.99,FreeWX 2.04,2013-08-14 13:25:00,
2013-08-14 09:30:00,62.4,56.1,30.03,North,-999,0.0,4.0,80,0.00,,,-99.99,FreeWX 2.04,2013-08-14 13:30:00,
2013-08-14 09:35:00,63.7,56.7,30.03,North,-999,0.0,4.0,78,0.00,,,-99.99,FreeWX 2.04,2013-08-14 13:35:00,
2013-08-14 09:40:00,64.4,54.9,30.03,SW,222,1.0,6.9,71,0.00,,,-99.99,FreeWX 2.04,2013-08-14 13:40:00,
2013-08-14 09:45:00,65.3,52.9,30.03,North,-999,0.0,0.0,64,0.00,,,-99.99,FreeWX 2.04,2013-08-14 13:45:00,
2013-08-14 09:50:00,66.4,52.9,30.03,North,-999,0.0,4.0,62,0.00,,,-99.99,FreeWX 2.04,2013-08-14 13:50:00,
2013-08-14 09:55:00,67.1,48.9,30.03,North,-999,0.0,4.0,52,0.00,,,-99.99,FreeWX 2.04,2013-08-14 13:55:00,
2013-08-14 10:00:00,68.2,47.7,30.03,North,-999,0.0,4.0,48,0.00,,,-99.99,FreeWX 2.04,2013-08-14 14:00:00,
2013-08-14 10:05:00,69.3,46.4,30.03,North,-999,0.0,4.0,44,0.00,,,-99.99,FreeWX 2.04,2013-08-14 14:05:00,
2013-08-14 10:10:00,70.0,41.7,30.03,SE,141,1.0,4.9,36,0.00,,,-99.99,FreeWX 2.04,2013-08-14 14:10:00,
2013-08-14 10:15:00,70.9,40.3,30.03,SSE,154,1.0,6.3,33,0.00,,,-99.99,FreeWX 2.04,2013-08-14 14:15:00,
2013-08-14 10:20:00,71.6,37.6,30.03,SSW,194,1.0,5.8,29,0.00,,,-99.99,FreeWX 2.04,2013-08-14 14:20:00,
2013-08-14 10:25:00,72.7,36.7,30.03,SSW,194,1.0,6.7,27,0.00,,,-99.99,FreeWX 2.04,2013-08-14 14:25:00,
2013-08-14 10:30:00,72.5,33.6,30.03,SSW,207,1.0,4.9,24,0.00,,,-99.99,FreeWX 2.04,2013-08-14 14:30:00,
2013-08-14 10:35:00,72.9,32.9,30.03,South,173,1.0,4.9,23,0.00,,,-99.99,FreeWX 2.04,2013-08-14 14:35:00,
2013-08-14 10:40:00,73.6,31.3,30.06,ESE,106,1.0,4.9,21,0.00,,,-99.99,FreeWX 2.04,2013-08-14 14:40:00,
2013-08-14 10:45:00,74.1,32.9,30.06,ESE,118,2.0,4.5,22,0.00,,,-99.99,FreeWX 2.04,2013-08-14 14:45:00,
2013-08-14 10:50:00,74.7,32.2,30.06,SE,135,1.0,6.3,21,0.00,,,-99.99,FreeWX 2.04,2013-08-14 14:50:00,
2013-08-14 10:55:00,75.2,31.3,30.06,SE,137,2.0,5.8,20,0.00,,,-99.99,FreeWX 2.04,2013-08-14 14:55:00,
2013-08-14 11:00:00,75.4,31.5,30.06,SSE,166,1.0,3.6,20,0.00,,,-99.99,FreeWX 2.04,2013-08-14 15:00:00,
2013-08-14 11:05:00,76.1,32.2,30.06,North,-999,0.0,4.9,20,0.00,,,-99.99,FreeWX 2.04,2013-08-14 15:05:00,
2013-08-14 11:10:00,76.6,30.0,30.06,SSE,160,1.0,5.8,18,0.00,,,-99.99,FreeWX 2.04,2013-08-14 15:10:00,
2013-08-14 11:15:00,76.1,29.5,30.06,South,171,2.0,6.3,18,0.00,,,-99.99,FreeWX 2.04,2013-08-14 15:15:00,
2013-08-14 11:20:00,75.6,29.1,30.06,SW,229,1.0,5.8,18,0.00,,,-99.99,FreeWX 2.04,2013-08-14 15:20:00,
2013-08-14 11:25:00,74.3,23.7,30.06,SSW,205,2.0,5.4,15,0.00,,,-99.99,FreeWX 2.04,2013-08-14 15:25:00,
2013-08-14 11:30:00,74.7,28.4,30.06,SSE,159,2.0,6.9,18,0.00,,,-99.99,FreeWX 2.04,2013-08-14 15:30:00,
2013-08-14 11:35:00,75.2,28.8,30.06,ESE,123,2.0,6.3,18,0.00,,,-99.99,FreeWX 2.04,2013-08-14 15:35:00,
2013-08-14 11:40:00,75.4,24.4,30.03,ESE,110,2.0,7.4,15,0.00,,,-99.99,FreeWX 2.04,2013-08-14 15:40:00,
2013-08-14 11:45:00,75.7,24.8,30.03,ESE,114,2.0,5.4,15,0.00,,,-99.99,FreeWX 2.04,2013-08-14 15:45:00,
2013-08-14 11:50:00,76.3,25.2,30.03,SSE,153,2.0,5.4,15,0.00,,,-99.99,FreeWX 2.04,2013-08-14 15:50:00,
2013-08-14 11:55:00,76.8,25.7,30.03,SE,135,2.0,6.3,15,0.00,,,-99.99,FreeWX 2.04,2013-08-14 15:55:00,
2013-08-14 12:00:00,76.8,25.7,30.03,SSE,153,1.0,5.8,15,0.00,,,-99.99,FreeWX 2.04,2013-08-14 16:00:00,
2013-08-14 12:05:00,77.0,25.9,30.03,SSW,194,2.0,6.3,15,0.00,,,-99.99,FreeWX 2.04,2013-08-14 16:05:00,
2013-08-14 12:10:00,74.8,24.1,30.03,WSW,242,2.0,4.5,15,0.00,,,-99.99,FreeWX 2.04,2013-08-14 16:10:00,
2013-08-14 12:15:00,75.9,25.0,30.03,NW,325,1.0,4.5,15,0.00,,,-99.99,FreeWX 2.04,2013-08-14 16:15:00,
2013-08-14 12:20:00,76.6,22.1,30.03,ESE,106,2.0,6.3,13,0.00,,,-99.99,FreeWX 2.04,2013-08-14 16:20:00,
2013-08-14 12:26:00,77.0,25.9,30.03,SW,226,2.0,4.0,15,0.00,,,-99.99,FreeWX 2.04,2013-08-14 16:26:00,
2013-08-14 12:31:00,76.5,21.9,30.03,WSW,241,1.0,6.7,13,0.00,,,-99.99,FreeWX 2.04,2013-08-14 16:31:00,
2013-08-14 12:36:00,77.7,26.4,30.03,ESE,107,1.0,4.5,15,0.00,,,-99.99,FreeWX 2.04,2013-08-14 16:36:00,
2013-08-14 12:41:00,78.8,21.9,30.03,SSE,162,2.0,6.7,12,0.00,,,-99.99,FreeWX 2.04,2013-08-14 16:41:00,
2013-08-14 12:46:00,78.1,21.4,30.03,South,178,3.0,6.3,12,0.00,,,-99.99,FreeWX 2.04,2013-08-14 16:46:00,
2013-08-14 12:51:00,78.3,21.6,30.03,ESE,118,2.0,6.3,12,0.00,,,-99.99,FreeWX 2.04,2013-08-14 16:51:00,
2013-08-14 12:56:00,79.5,22.5,30.03,SE,133,1.0,4.5,12,0.00,,,-99.99,FreeWX 2.04,2013-08-14 16:56:00,
2013-08-14 13:01:00,77.5,22.8,30.03,SE,132,1.0,4.5,13,0.00,,,-99.99,FreeWX 2.04,2013-08-14 17:01:00,
2013-08-14 13:06:00,76.1,21.7,30.03,SE,132,2.0,5.4,13,0.00,,,-99.99,FreeWX 2.04,2013-08-14 17:06:00,
2013-08-14 13:11:00,74.5,20.5,30.03,SE,124,1.0,4.0,13,0.00,,,-99.99,FreeWX 2.04,2013-08-14 17:11:00,
2013-08-14 13:16:00,73.2,19.4,30.03,North,-999,0.0,3.1,13,0.00,,,-99.99,FreeWX 2.04,2013-08-14 17:16:00,
2013-08-14 13:21:00,74.8,20.7,30.03,SE,124,1.0,7.4,13,0.00,,,-99.99,FreeWX 2.04,2013-08-14 17:21:00,
2013-08-14 13:26:00,74.8,20.7,30.03,SE,141,1.0,4.0,13,0.00,,,-99.99,FreeWX 2.04,2013-08-14 17:26:00,
2013-08-14 13:31:00,73.9,19.9,30.03,ESE,113,1.0,5.8,13,0.00,,,-99.99,FreeWX 2.04,2013-08-14 17:31:00,
2013-08-14 13:36:00,72.9,24.1,30.03,WSW,247,1.0,4.0,16,0.00,,,-99.99,FreeWX 2.04,2013-08-14 17:36:00,
2013-08-14 13:41:00,74.8,24.1,30.03,North,-999,0.0,2.7,15,0.00,,,-99.99,FreeWX 2.04,2013-08-14 17:41:00,
2013-08-14 13:46:00,78.6,27.1,30.03,North,-999,0.0,5.8,15,0.00,,,-99.99,FreeWX 2.04,2013-08-14 17:46:00,
2013-08-14 13:56:00,75.9,21.6,30.03,SSE,163,1.0,4.9,13,0.00,,,-99.99,FreeWX 2.04,2013-08-14 17:56:00,
2013-08-14 14:01:00,74.5,20.5,30.03,South,169,1.0,4.9,13,0.00,,,-99.99,FreeWX 2.04,2013-08-14 18:01:00,
2013-08-14 14:06:00,75.9,25.0,30.03,SSE,154,1.0,5.8,15,0.00,,,-99.99,FreeWX 2.04,2013-08-14 18:06:00,
2013-08-14 14:11:00,76.8,22.3,30.03,SSE,147,2.0,5.4,13,0.00,,,-99.99,FreeWX 2.04,2013-08-14 18:11:00,
2013-08-14 14:16:00,77.4,22.6,30.03,South,179,1.0,4.0,13,0.00,,,-99.99,FreeWX 2.04,2013-08-14 18:16:00,
2013-08-14 14:21:00,77.7,23.0,30.03,North,-999,0.0,3.1,13,0.00,,,-99.99,FreeWX 2.04,2013-08-14 18:21:00,
2013-08-14 14:27:00,77.5,26.2,30.03,North,-999,0.0,0.0,15,0.00,,,-99.99,FreeWX 2.04,2013-08-14 18:27:00,
2013-08-14 14:32:00,78.6,27.1,30.03,North,-999,0.0,3.1,15,0.00,,,-99.99,FreeWX 2.04,2013-08-14 18:32:00,
2013-08-14 14:37:00,79.9,22.8,30.03,SSW,207,1.0,5.4,12,0.00,,,-99.99,FreeWX 2.04,2013-08-14 18:37:00,
2013-08-14 14:42:00,78.3,21.6,30.03,SE,142,1.0,5.8,12,0.00,,,-99.99,FreeWX 2.04,2013-08-14 18:42:00,
2013-08-14 14:52:00,80.1,22.8,30.03,SE,142,1.0,5.4,12,0.00,,,-99.99,FreeWX 2.04,2013-08-14 18:52:00,
2013-08-14 14:57:00,79.7,22.6,30.03,SSE,158,2.0,7.4,12,0.00,,,-99.99,FreeWX 2.04,2013-08-14 18:57:00,
2013-08-14 15:02:00,78.4,21.6,30.03,SE,141,2.0,4.5,12,0.00,,,-99.99,FreeWX 2.04,2013-08-14 19:02:00,
2013-08-14 15:07:00,75.2,21.0,30.03,ESE,109,1.0,5.4,13,0.00,,,-99.99,FreeWX 2.04,2013-08-14 19:07:00,
2013-08-14 15:18:00,72.3,27.7,30.03,NE,39,1.0,0.0,19,0.00,,,-99.99,FreeWX 2.04,2013-08-14 19:18:00,
2013-08-14 15:23:00,72.9,30.6,30.03,North,-999,0.0,0.0,21,0.00,,,-99.99,FreeWX 2.04,2013-08-14 19:23:00,
2013-08-14 15:33:00,73.8,31.5,30.03,North,-999,0.0,3.1,21,0.00,,,-99.99,FreeWX 2.04,2013-08-14 19:33:00,
2013-08-14 15:38:00,72.7,30.6,30.03,North,-999,0.0,4.9,21,0.00,,,-99.99,FreeWX 2.04,2013-08-14 19:38:00,
2013-08-14 15:43:00,73.9,31.5,30.03,North,-999,0.0,3.1,21,0.00,,,-99.99,FreeWX 2.04,2013-08-14 19:43:00,
2013-08-14 15:48:00,73.2,30.9,30.03,North,-999,0.0,3.1,21,0.00,,,-99.99,FreeWX 2.04,2013-08-14 19:48:00,
2013-08-14 15:53:00,71.6,30.7,30.03,North,-999,0.0,5.4,22,0.00,,,-99.99,FreeWX 2.04,2013-08-14 19:53:00,
2013-08-14 15:58:00,70.9,30.2,30.03,North,-999,0.0,0.0,22,0.00,,,-99.99,FreeWX 2.04,2013-08-14 19:58:00,
2013-08-14 16:03:00,70.3,30.7,30.03,North,-999,0.0,4.0,23,0.00,,,-99.99,FreeWX 2.04,2013-08-14 20:03:00,
2013-08-14 16:08:00,70.2,30.6,30.03,North,-999,0.0,0.0,23,0.00,,,-99.99,FreeWX 2.04,2013-08-14 20:08:00,
2013-08-14 16:13:00,70.0,30.6,30.03,North,-999,0.0,4.5,23,0.00,,,-99.99,FreeWX 2.04,2013-08-14 20:13:00,
2013-08-14 16:18:00,70.7,32.2,30.03,North,-999,0.0,0.0,24,0.00,,,-99.99,FreeWX 2.04,2013-08-14 20:18:00,
2013-08-14 16:23:00,72.0,33.3,30.03,North,-999,0.0,5.4,24,0.00,,,-99.99,FreeWX 2.04,2013-08-14 20:23:00,
2013-08-14 16:28:00,72.5,31.5,30.03,North,-999,0.0,4.5,22,0.00,,,-99.99,FreeWX 2.04,2013-08-14 20:28:00,
2013-08-14 16:33:00,71.4,30.6,30.03,North,-999,0.0,3.6,22,0.00,,,-99.99,FreeWX 2.04,2013-08-14 20:33:00,
2013-08-14 16:49:00,70.2,33.6,30.00,North,-999,0.0,2.7,26,0.00,,,-99.99,FreeWX 2.04,2013-08-14 20:49:00,
2013-08-14 16:54:00,71.4,32.7,30.00,North,-999,0.0,4.5,24,0.00,,,-99.99,FreeWX 2.04,2013-08-14 20:54:00,
2013-08-14 16:59:00,71.4,32.7,30.00,North,-999,0.0,4.5,24,0.00,,,-99.99,FreeWX 2.04,2013-08-14 20:59:00,
2013-08-14 17:04:00,71.1,31.5,30.00,North,-999,0.0,4.9,23,0.00,,,-99.99,FreeWX 2.04,2013-08-14 21:04:00,
2013-08-14 17:09:00,69.8,31.5,30.00,North,-999,0.0,0.0,24,0.00,,,-99.99,FreeWX 2.04,2013-08-14 21:09:00,
2013-08-14 17:14:00,68.5,31.3,30.00,North,-999,0.0,2.7,25,0.00,,,-99.99,FreeWX 2.04,2013-08-14 21:14:00,
2013-08-14 17:19:00,68.0,31.8,30.00,North,-999,0.0,0.0,26,0.00,,,-99.99,FreeWX 2.04,2013-08-14 21:19:00,
2013-08-14 17:24:00,67.6,32.5,30.00,North,-999,0.0,0.0,27,0.00,,,-99.99,FreeWX 2.04,2013-08-14 21:24:00,
2013-08-14 17:29:00,67.3,32.2,30.00,North,-999,0.0,0.0,27,0.00,,,-99.99,FreeWX 2.04,2013-08-14 21:29:00,
2013-08-14 17:34:00,66.9,32.7,30.00,North,-999,0.0,4.5,28,0.00,,,-99.99,FreeWX 2.04,2013-08-14 21:34:00,
2013-08-14 17:39:00,66.9,33.6,30.00,North,-999,0.0,3.6,29,0.00,,,-99.99,FreeWX 2.04,2013-08-14 21:39:00,
2013-08-14 17:49:00,66.6,35.1,30.00,North,-999,0.0,4.0,31,0.00,,,-99.99,FreeWX 2.04,2013-08-14 21:49:00,
2013-08-14 17:54:00,66.4,35.6,30.00,North,-999,0.0,4.5,32,0.00,,,-99.99,FreeWX 2.04,2013-08-14 21:54:00,
2013-08-14 17:59:00,66.0,36.1,30.00,North,-999,0.0,0.0,33,0.00,,,-99.99,FreeWX 2.04,2013-08-14 21:59:00,
2013-08-14 18:04:00,65.7,35.8,30.00,North,-999,0.0,0.0,33,0.00,,,-99.99,FreeWX 2.04,2013-08-14 22:04:00,
2013-08-14 18:09:00,65.5,36.3,30.00,North,-999,0.0,3.6,34,0.00,,,-99.99,FreeWX 2.04,2013-08-14 22:09:00,
2013-08-14 18:14:00,65.5,36.3,30.00,North,-999,0.0,3.1,34,0.00,,,-99.99,FreeWX 2.04,2013-08-14 22:14:00,
2013-08-14 18:19:00,65.1,36.9,30.00,North,-999,0.0,0.0,35,0.00,,,-99.99,FreeWX 2.04,2013-08-14 22:19:00,
2013-08-14 18:24:00,64.9,37.4,30.00,North,-999,0.0,3.1,36,0.00,,,-99.99,FreeWX 2.04,2013-08-14 22:24:00,
2013-08-14 18:29:00,64.6,37.0,30.00,North,-999,0.0,0.0,36,0.00,,,-99.99,FreeWX 2.04,2013-08-14 22:29:00,
2013-08-14 18:40:00,64.4,37.6,30.00,North,-999,0.0,0.0,37,0.00,,,-99.99,FreeWX 2.04,2013-08-14 22:40:00,
2013-08-14 18:45:00,64.0,37.2,30.00,North,-999,0.0,4.0,37,0.00,,,-99.99,FreeWX 2.04,2013-08-14 22:45:00,
2013-08-14 18:50:00,64.4,38.3,30.00,North,-999,0.0,3.1,38,0.00,,,-99.99,FreeWX 2.04,2013-08-14 22:50:00,
2013-08-14 18:55:00,64.9,38.7,30.00,North,-999,0.0,2.7,38,0.00,,,-99.99,FreeWX 2.04,2013-08-14 22:55:00,
2013-08-14 19:00:00,64.8,37.9,30.00,North,-999,0.0,0.0,37,0.00,,,-99.99,FreeWX 2.04,2013-08-14 23:00:00,
2013-08-14 19:05:00,64.4,36.9,30.00,North,-999,0.0,3.6,36,0.00,,,-99.99,FreeWX 2.04,2013-08-14 23:05:00,
2013-08-14 19:10:00,63.9,36.3,30.00,North,-999,0.0,0.0,36,0.00,,,-99.99,FreeWX 2.04,2013-08-14 23:10:00,
2013-08-14 19:15:00,63.5,36.7,30.00,North,-999,0.0,0.0,37,0.00,,,-99.99,FreeWX 2.04,2013-08-14 23:15:00,
2013-08-14 19:20:00,63.1,37.8,30.00,North,-999,0.0,2.7,39,0.00,,,-99.99,FreeWX 2.04,2013-08-14 23:20:00,
2013-08-14 19:25:00,62.8,37.4,30.00,North,-999,0.0,0.0,39,0.00,,,-99.99,FreeWX 2.04,2013-08-14 23:25:00,
2013-08-14 19:30:00,62.2,37.6,30.00,North,-999,0.0,0.0,40,0.00,,,-99.99,FreeWX 2.04,2013-08-14 23:30:00,
2013-08-14 19:35:00,62.1,39.4,30.00,North,-999,0.0,0.0,43,0.00,,,-99.99,FreeWX 2.04,2013-08-14 23:35:00,
2013-08-14 19:40:00,61.9,39.7,30.00,North,-999,0.0,0.0,44,0.00,,,-99.99,FreeWX 2.04,2013-08-14 23:40:00,
2013-08-14 19:45:00,61.7,40.1,30.00,North,-999,0.0,0.0,45,0.00,,,-99.99,FreeWX 2.04,2013-08-14 23:45:00,
2013-08-14 19:50:00,61.5,40.5,30.00,North,-999,0.0,4.0,46,0.00,,,-99.99,FreeWX 2.04,2013-08-14 23:50:00,
2013-08-14 19:55:00,61.5,41.2,30.00,North,-999,0.0,0.0,47,0.00,,,-99.99,FreeWX 2.04,2013-08-14 23:55:00,
2013-08-14 20:00:00,61.2,40.8,30.00,North,-999,0.0,0.0,47,0.00,,,-99.99,FreeWX 2.04,2013-08-15 00:00:00,
2013-08-14 20:05:00,61.0,40.6,30.00,North,-999,0.0,0.0,47,0.00,,,-99.99,FreeWX 2.04,2013-08-15 00:05:00,
2013-08-14 20:10:00,61.0,41.2,30.00,North,-999,0.0,0.0,48,0.00,,,-99.99,FreeWX 2.04,2013-08-15 00:10:00,
2013-08-14 20:15:00,60.6,41.4,30.00,North,-999,0.0,0.0,49,0.00,,,-99.99,FreeWX 2.04,2013-08-15 00:15:00,
2013-08-14 20:20:00,60.4,41.2,30.00,North,-999,0.0,0.0,49,0.00,,,-99.99,FreeWX 2.04,2013-08-15 00:20:00,
2013-08-14 20:25:00,60.3,42.1,30.00,North,-999,0.0,3.1,51,0.00,,,-99.99,FreeWX 2.04,2013-08-15 00:25:00,
2013-08-14 20:30:00,60.1,41.9,30.00,North,-999,0.0,0.0,51,0.00,,,-99.99,FreeWX 2.04,2013-08-15 00:30:00,
2013-08-14 20:35:00,60.1,43.3,30.00,North,-999,0.0,0.0,54,0.00,,,-99.99,FreeWX 2.04,2013-08-15 00:35:00,
2013-08-14 20:40:00,59.7,43.0,30.00,North,-999,0.0,0.0,54,0.00,,,-99.99,FreeWX 2.04,2013-08-15 00:40:00,
2013-08-14 20:45:00,59.5,42.8,30.00,North,-999,0.0,0.0,54,0.00,,,-99.99,FreeWX 2.04,2013-08-15 00:45:00,
2013-08-14 20:50:00,59.2,42.6,30.00,North,-999,0.0,0.0,54,0.00,,,-99.99,FreeWX 2.04,2013-08-15 00:50:00,
2013-08-14 20:55:00,59.0,42.8,30.00,North,-999,0.0,0.0,55,0.00,,,-99.99,FreeWX 2.04,2013-08-15 00:55:00,
2013-08-14 21:00:00,58.8,43.2,30.00,North,-999,0.0,0.0,56,0.00,,,-99.99,FreeWX 2.04,2013-08-15 01:00:00,
2013-08-14 21:05:00,58.5,42.8,30.00,North,-999,0.0,0.0,56,0.00,,,-99.99,FreeWX 2.04,2013-08-15 01:05:00,
2013-08-14 21:10:00,58.5,43.3,30.00,North,-999,0.0,0.0,57,0.00,,,-99.99,FreeWX 2.04,2013-08-15 01:10:00,
2013-08-14 21:15:00,58.1,43.3,30.00,North,-999,0.0,0.0,58,0.00,,,-99.99,FreeWX 2.04,2013-08-15 01:15:00,
2013-08-14 21:20:00,57.9,43.7,30.00,North,-999,0.0,0.0,59,0.00,,,-99.99,FreeWX 2.04,2013-08-15 01:20:00,
2013-08-14 21:25:00,57.7,44.4,30.00,North,-999,0.0,0.0,61,0.00,,,-99.99,FreeWX 2.04,2013-08-15 01:25:00,
2013-08-14 21:30:00,57.4,44.1,30.00,North,-999,0.0,0.0,61,0.00,,,-99.99,FreeWX 2.04,2013-08-15 01:30:00,
2013-08-14 21:35:00,57.0,43.3,30.00,North,-999,0.0,0.0,60,0.00,,,-99.99,FreeWX 2.04,2013-08-15 01:35:00,
2013-08-14 21:40:00,56.8,43.5,30.03,North,-999,0.0,0.0,61,0.00,,,-99.99,FreeWX 2.04,2013-08-15 01:40:00,
2013-08-14 21:45:00,56.7,43.7,30.03,North,-999,0.0,0.0,62,0.00,,,-99.99,FreeWX 2.04,2013-08-15 01:45:00,
2013-08-14 21:50:00,56.5,44.1,30.03,North,-999,0.0,0.0,63,0.00,,,-99.99,FreeWX 2.04,2013-08-15 01:50:00,
2013-08-14 21:55:00,56.3,44.2,30.00,North,-999,0.0,0.0,64,0.00,,,-99.99,FreeWX 2.04,2013-08-15 01:55:00,
2013-08-14 22:00:00,55.9,44.4,30.00,North,-999,0.0,0.0,65,0.00,,,-99.99,FreeWX 2.04,2013-08-15 02:00:00,
2013-08-14 22:05:00,55.6,44.1,30.00,North,-999,0.0,0.0,65,0.00,,,-99.99,FreeWX 2.04,2013-08-15 02:05:00,